sat.trackr.live / text

‹ back to catalog

METEOSAT-12 (MTG-I1)

NORAD 54743 · 2022-170C

PAYLOAD ACTIVE UNKNOWN

§ Identity

Operator
Country
EUME
Launch date
2022-12-13
Launch site
FRGUI
Launch vehicle
Mass (kg)
RCS (m²)

Purposes: comms, earth_obs

External: N2YO · Heavens-Above · Gunter

§ Orbital elements

Epoch: 2026-09-20T03:13:58.123200Z

Period
1,436.08 min
Inclination
0.7364°
Eccentricity
0.0003857
Mean motion
1.00272705 rev/d
Perigee alt
35,770.1 km
Apogee alt
35,802.6 km
Semi-major
42,164.5 km
B*
0.0000e+0
RAAN
19.9607°
Arg perigee
93.6974°
Mean anomaly
293.4113°
Rev number
1,393

§ Raw data

METEOSAT-12 (MTG-I1)1 54743U 22170C   26263.13470050 -.00000012  00000+0  00000+0 0  99962 54743   0.7364  19.9607 0003857  93.6974 293.4113  1.00272705 13931

JSON: /api/v1/satellites/54743 · /tle

For live sub-satellite position, see the globe view (requires WebGL).

§ Visibility from observer

Set your observer location to see the next 7 days of passes ≥ 10°. The values pass through the URL so the page stays shareable.

No JS? Fill the form by hand. The geolocation button needs JavaScript.